NOAA NWS Hourly Roundups by Site

Regional Weather Roundup for Omaha, NE

To Select Another Site Choose from List

Select Site:  

000
ASUS43 KOAX 031410
RWRNE

WEATHER ROUNDUP FOR NEBRASKA
NATIONAL WEATHER SERVICE OMAHA NE
800 AM CST WED MAR 03 2021

NOTES: SATELLITE DATA IS BEING USED TO AUGMENT CLOUD COVER ABOVE
       12000 FEET.
       "FAIR" INDICATES FEW OR NO CLOUDS BELOW 12,000 FEET WITH NO
       SIGNIFICANT WEATHER AND/OR OBSTRUCTIONS TO VISIBILITY.


NEZ001>004-019>022-054>056-031500-
NEBRASKA PANHANDLE

CITY           SKY/WX    TMP DP  RH WIND       PRES   REMARKS
SCOTTSBLUFF    CLEAR     24  17  74 NW5       30.01R WCI  18
ALLIANCE       CLEAR     22  18  85 W6        29.98R WCI  14
CHADRON        CLEAR     30  22  72 W8        29.98R WCI  22
GORDON         CLEAR     33  24  68 SW8       29.96R WCI  26
KIMBALL        PTCLDY    25  17  72 W8        30.02R WCI  17
SIDNEY         PTCLDY    25  18  74 W5        30.00R WCI  19
$$

NEZ057>060-069>072-079>082-031500-
SOUTHWEST NEBRASKA

CITY           SKY/WX    TMP DP  RH WIND       PRES   REMARKS
NORTH PLATTE   CLEAR     26  19  74 CALM      30.01R
IMPERIAL       CLEAR     32  22  66 NW10      30.00R WCI  24
LEXINGTON      CLEAR     29  25  85 W7        30.00R WCI  22
MCCOOK         CLEAR     27  22  81 SW9       30.01R WCI  18
OGALLALA       PTCLDY    27  23  86 W9        30.01S WCI  18
$$

NEZ005>010-023>029-035>040-094-031500-
NORTH CENTRAL NEBRASKA

CITY           SKY/WX    TMP DP  RH WIND       PRES   REMARKS
VALENTINE      CLEAR     28  23  81 SW7       29.96R WCI  21
AINSWORTH      CLEAR     30  24  78 S3        29.97R
BROKEN BOW     CLEAR     28  24  85 CALM      29.99R
O`NEILL        CLEAR     31  26  81 W5        30.00R WCI  26
ORD            CLEAR     29  24  82 NW5       29.99R WCI  24
THEDFORD       CLEAR     28  23  82 CALM      29.98R
$$

NEZ041-046>049-061>064-073>077-083>087-031500-
SOUTH CENTRAL NEBRASKA

CITY           SKY/WX    TMP DP  RH WIND       PRES   REMARKS
GRAND ISLAND   CLEAR     34  27  75 CALM      30.00R
AURORA         CLEAR     33  29  85 CALM      30.00R
HASTINGS       CLEAR     34  28  79 CALM      29.99R
HEBRON         SUNNY     30  25  83 CALM      29.99R
HOLDREGE       CLEAR     32  27  81 N5        29.99R WCI  28
KEARNEY        CLEAR     30  26  85 NW8       30.00R WCI  22
YORK           SUNNY     34  30  86 CALM      30.00R
$$

NEZ011>018-030>034-042>045-031500-
NORTHEAST NEBRASKA

CITY           SKY/WX    TMP DP  RH WIND       PRES   REMARKS
NORFOLK        PTCLDY    29  24  82 CALM      30.00R
ALBION         CLEAR     27  24  89 CALM      30.00R
BLAIR          SUNNY     42  33  72 CALM      29.99R
COLUMBUS       SUNNY     32  29  88 NW3       30.02R
FREMONT        SUNNY     34  31  90 CALM      30.00R
TEKAMAH        SUNNY     33  30  88 CALM      30.00R
WAYNE          MOSUNNY   29  27  90 CALM      30.00R
$$

NEZ050>053-065>068-078-088>093-031500-
SOUTHEAST NEBRASKA

CITY           SKY/WX    TMP DP  RH WIND       PRES   REMARKS
LINCOLN        SUNNY     33  26  75 N3        30.02R
OMAHA EPPLEY   MOSUNNY   33  29  85 CALM      30.00R
BEATRICE       SUNNY     31  25  80 CALM      30.00R
FALLS CITY     SUNNY     36  24  62 S5        30.00R WCI  32
NEBRASKA CITY  SUNNY     39  26  59 N5        30.00R
PLATTSMOUTH    SUNNY     38  29  72 CALM      30.01R
$$

NEZ044-045-051>053-067-031500-
OMAHA AREA

CITY           SKY/WX    TMP DP  RH WIND       PRES   REMARKS
OMAHA EPPLEY   MOSUNNY   33  29  85 CALM      30.00R
BLAIR          SUNNY     42  33  72 CALM      29.99R
FREMONT        SUNNY     34  31  90 CALM      30.00R
MILLARD        SUNNY     33  29  83 CALM      30.01R
OFFUTT AFB     SUNNY     33  27  80 CALM      30.00R
PLATTSMOUTH    SUNNY     38  29  72 CALM      30.01R
WAHOO          SUNNY     33  32  96 N3        30.01R
$$



 

View Past Reports for Omaha, NE.

Products Courtesy of NOAA-NWS
NWS Information Parsing Script by Ken True at Saratoga Weather - Script by SE Lincoln Weather.